FLOCK 4BE 26

导读

FLOCK 4BE 26是美国发射的商业遥感卫星,隶属于Planet公司FLOCK系列SuperDove鸽子星座,于2024年8月16日发射入轨。该卫星属于第三代高分辨率遥感小卫星,配备多光谱成像载荷,拥有8个光谱波段,可提供高分辨率对地观测影像。作为星座组网补网卫星,它提升了星座整体重访能力与在轨容量,能够为农业、林业、城市规划、灾害监测等领域提供持续、精准的地球观测数据服务。

基本信息
目录编号:
60484
目录名称:
FLOCK 4BE 26
国际标识:
2024-149S
轨道中心:
EARTH
卫星名称:
FLOCK 4BE 26
卫星全名:
FLOCK 4BE 26
卫星状态:
在轨 (已飞行664 天)
发射日期:
2024-08-16 UTC
国别 :
美国 (US)
星等 :
--
轨道信息
数据来源 国际轨道数据
星历时间: 2026-06-11T13:38:17+0800
14小时前
查看轨道信息
半长轴: 6746.225km
偏心率: 0.0004961
轨道倾角: 97.366°
近地点辐角 216.059°
升交点赤经 247.966°
平近点角 144.034°
近地点: 364.741km
远地点: 371.435km
周期: 91.907分钟
每日圈数: 15.667929
详细信息
使用方式:
暂无
2D轨道图
3D轨道图
轨道高度分析图
轨道倾角分析图
轨道综合分析图
查看轨道综合分析图